STARLINK-3121 (49428 NORAD) Tracking and Keplerian Element Data

This shows tracking and keplerian element data for the satellite.

Feedback or suggestion? Click here.




ElementValue
Catalog49428
NameSTARLINK-3121
Epoch Orbit479
Epoch Day339.91667824
Epoch Year2021
RAAN22.2447
Inclination53.2187
Eccentricity0.0001778
Argument of Perigee24.9522
Mean Anonmoly39.4675
Mean Motion15.73200543
Decay Rate-0.00060763
L11 49428U 21104W 21339.91667824 -.00060763 00000+0 -43161-3 0 9997
L22 49428 53.2187 22.2447 0001778 24.9522 39.4675 15.73200543 4797

Live tracking and technical data element details for STARLINK-3121 (NORAD 49428). STARLINK-3121 can be tracked NOW for your location showing map with azimuth and elevation plus other details from your city location.

Track the satellite on the map from your city or location and see movement details for azimuth, elevation, latitude, longitude, range, height, and movement on the map or in text.







IsCatalogInMostPopularTable: catalog: 49428, numindb: 1
Update: records affected: 1



GetName: 49428 STARLINK-3121

Hit Count: updated at: Wed, 08 Dec 2021 16:18:04 GMT